UAL1372 KLAX-KSFO

Flight info

Callsign UAL1372
Flight time 0h 56m
Altitude 38000
Route SUMMR2 STOKD SERFR SERFR4
Aircraft B738/M-SDE2E3FGHIRWXY/LB1

Departure

Time 2026-05-05 17:01
Airport Los Angeles International Airport (KLAX)

Arrival

Time 2026-05-05 17:57
Airport San Francisco International Airport (KSFO)
Time Latitude Longitude Altitude Speed Heading
2026-05-05 16:37 33.94642 -118.40634 125 ft 0 kts 286°
2026-05-05 16:51 33.94642 -118.40633 125 ft 1 kts 286°
2026-05-05 16:51 33.94635 -118.40605 121 ft 4 kts 288°
2026-05-05 16:51 33.94625 -118.40575 119 ft 4 kts 307°
2026-05-05 16:51 33.94608 -118.40560 122 ft 1 kts 353°
2026-05-05 16:56 33.94616 -118.40561 122 ft 3 kts 354°
2026-05-05 16:56 33.94659 -118.40567 123 ft 9 kts 352°
2026-05-05 16:57 33.94721 -118.40577 122 ft 9 kts 352°
2026-05-05 16:57 33.94782 -118.40588 122 ft 9 kts 347°
2026-05-05 16:57 33.94845 -118.40599 125 ft 9 kts 11°
2026-05-05 16:57 33.94872 -118.40536 123 ft 9 kts 85°
2026-05-05 16:58 33.94878 -118.40461 121 ft 9 kts 85°
2026-05-05 16:58 33.94885 -118.40386 125 ft 10 kts 81°
2026-05-05 16:58 33.94899 -118.40271 123 ft 15 kts 83°
2026-05-05 16:58 33.94911 -118.40148 125 ft 14 kts 83°
2026-05-05 16:59 33.94923 -118.40031 125 ft 14 kts 83°
2026-05-05 16:59 33.94939 -118.39945 123 ft 8 kts 59°
2026-05-05 16:59 33.94990 -118.39918 121 ft 8 kts
2026-05-05 16:59 33.95038 -118.39945 123 ft 8 kts 296°
2026-05-05 17:00 33.95040 -118.39983 124 ft 3 kts 261°
2026-05-05 17:00 33.95035 -118.40027 123 ft 20 kts 263°
2026-05-05 17:00 33.94979 -118.40560 125 ft 105 kts 263°
2026-05-05 17:00 33.94868 -118.41710 263 ft 161 kts 263°
2026-05-05 17:01 33.94718 -118.43142 989 ft 183 kts 262°
2026-05-05 17:01 33.94526 -118.44696 1948 ft 193 kts 261°
2026-05-05 17:01 33.94324 -118.46302 2570 ft 205 kts 265°
2026-05-05 17:01 33.94254 -118.48132 2974 ft 222 kts 269°
2026-05-05 17:02 33.94215 -118.50031 3535 ft 230 kts 270°
2026-05-05 17:02 33.94189 -118.51952 4116 ft 237 kts 269°
2026-05-05 17:02 33.94048 -118.53980 4694 ft 246 kts 266°
2026-05-05 17:02 33.93863 -118.56100 5175 ft 262 kts 265°
2026-05-05 17:03 33.93677 -118.58269 6099 ft 265 kts 265°
2026-05-05 17:03 33.93495 -118.60491 7011 ft 266 kts 266°
2026-05-05 17:03 33.93315 -118.62758 7924 ft 269 kts 266°
2026-05-05 17:03 33.93137 -118.65006 8897 ft 270 kts 266°
2026-05-05 17:04 33.92962 -118.67280 9654 ft 279 kts 267°
2026-05-05 17:04 33.92780 -118.69636 10357 ft 287 kts 266°
2026-05-05 17:04 33.92587 -118.72137 10581 ft 313 kts 266°
2026-05-05 17:04 33.92375 -118.74834 10950 ft 331 kts 266°
2026-05-05 17:05 33.92159 -118.77578 11606 ft 335 kts 266°
2026-05-05 17:05 33.91940 -118.80387 11972 ft 338 kts 266°
2026-05-05 17:05 33.91723 -118.83205 12017 ft 338 kts 267°
2026-05-05 17:05 33.91696 -118.86093 12352 ft 343 kts 274°
2026-05-05 17:06 33.91819 -118.88925 13173 ft 343 kts 275°
2026-05-05 17:06 33.91946 -118.91796 14032 ft 344 kts 274°
2026-05-05 17:06 33.92052 -118.94733 14740 ft 349 kts 274°
2026-05-05 17:06 33.92144 -118.97633 15402 ft 353 kts 274°
2026-05-05 17:07 33.92438 -119.00463 16041 ft 355 kts 289°
2026-05-05 17:07 33.93569 -119.03106 16720 ft 357 kts 309°
2026-05-05 17:07 33.95285 -119.05279 17401 ft 361 kts 317°
2026-05-05 17:07 33.97136 -119.07349 18023 ft 366 kts 318°
2026-05-05 17:08 33.99026 -119.09414 18691 ft 368 kts 319°
2026-05-05 17:08 34.00915 -119.11476 19307 ft 370 kts 319°
2026-05-05 17:08 34.02820 -119.13571 19873 ft 374 kts 318°
2026-05-05 17:08 34.04749 -119.15709 20435 ft 378 kts 318°
2026-05-05 17:09 34.06689 -119.17876 21004 ft 381 kts 318°
2026-05-05 17:09 34.08631 -119.20061 21609 ft 383 kts 318°
2026-05-05 17:09 34.10585 -119.22265 22189 ft 385 kts 318°
2026-05-05 17:09 34.12477 -119.24405 22705 ft 388 kts 318°
2026-05-05 17:10 34.14451 -119.26637 23314 ft 389 kts 319°
2026-05-05 17:10 34.16428 -119.28876 23856 ft 391 kts 319°
2026-05-05 17:10 34.18426 -119.31137 24320 ft 396 kts 319°
2026-05-05 17:10 34.20445 -119.33426 24768 ft 401 kts 319°
2026-05-05 17:11 34.22487 -119.35748 25232 ft 403 kts 320°
2026-05-05 17:11 34.24527 -119.38065 25754 ft 402 kts 320°
2026-05-05 17:11 34.26564 -119.40381 26297 ft 401 kts 321°
2026-05-05 17:11 34.28591 -119.42686 26857 ft 399 kts 321°
2026-05-05 17:12 34.30610 -119.44984 27414 ft 397 kts 321°
2026-05-05 17:12 34.32616 -119.47268 27989 ft 395 kts 321°
2026-05-05 17:12 34.34611 -119.49541 28565 ft 393 kts 322°
2026-05-05 17:12 34.36594 -119.51803 29176 ft 390 kts 322°
2026-05-05 17:13 34.38560 -119.54047 29784 ft 388 kts 323°
2026-05-05 17:13 34.40518 -119.56287 30337 ft 385 kts 323°
2026-05-05 17:13 34.42454 -119.58501 30854 ft 381 kts 323°
2026-05-05 17:13 34.44347 -119.60666 31372 ft 377 kts 322°
2026-05-05 17:14 34.46267 -119.62862 31892 ft 373 kts 322°
2026-05-05 17:14 34.48116 -119.64979 32428 ft 368 kts 321°
2026-05-05 17:14 34.49971 -119.67104 32983 ft 363 kts 321°
2026-05-05 17:14 34.51793 -119.69192 33533 ft 358 kts 321°
2026-05-05 17:15 34.53588 -119.71252 34098 ft 352 kts 320°
2026-05-05 17:15 34.55345 -119.73268 34534 ft 348 kts 320°
2026-05-05 17:15 34.57123 -119.75305 34413 ft 362 kts 320°
2026-05-05 17:15 34.58977 -119.77430 34464 ft 369 kts 320°
2026-05-05 17:16 34.62784 -119.81804 34612 ft 385 kts 320°
2026-05-05 17:16 34.66732 -119.86359 34732 ft 397 kts 320°
2026-05-05 17:17 34.70814 -119.91061 34829 ft 411 kts 320°
2026-05-05 17:17 34.75002 -119.95893 34933 ft 422 kts 320°
2026-05-05 17:18 34.79194 -120.00741 35067 ft 432 kts 320°
2026-05-05 17:18 34.81404 -120.03301 35208 ft 434 kts 319°
2026-05-05 17:18 34.83589 -120.05836 35461 ft 434 kts 319°
2026-05-05 17:19 34.85739 -120.08330 35725 ft 432 kts 319°
2026-05-05 17:19 34.87918 -120.10862 35945 ft 432 kts 319°
2026-05-05 17:19 34.90086 -120.13385 36234 ft 430 kts 319°
2026-05-05 17:19 34.92248 -120.15900 36482 ft 430 kts 319°
2026-05-05 17:20 34.94418 -120.18423 36593 ft 433 kts 319°
2026-05-05 17:20 34.96605 -120.20967 36552 ft 437 kts 319°
2026-05-05 17:20 35.00987 -120.26074 36551 ft 434 kts 319°
2026-05-05 17:21 35.05305 -120.31121 36553 ft 429 kts 319°
2026-05-05 17:22 35.11775 -120.38688 36555 ft 429 kts 320°
2026-05-05 17:22 35.16085 -120.43742 36561 ft 430 kts 320°
2026-05-05 17:23 35.20404 -120.48810 36562 ft 432 kts 320°
2026-05-05 17:23 35.24751 -120.53923 36547 ft 434 kts 321°
2026-05-05 17:24 35.29080 -120.59038 36551 ft 435 kts 321°
2026-05-05 17:24 35.33411 -120.64250 36287 ft 442 kts 321°
2026-05-05 17:24 35.35429 -120.66588 36112 ft 439 kts 322°
2026-05-05 17:25 35.37622 -120.69139 36075 ft 437 kts 322°
2026-05-05 17:25 35.42029 -120.74230 36074 ft 437 kts 321°
2026-05-05 17:26 35.46409 -120.79398 36012 ft 438 kts 326°
2026-05-05 17:26 35.51098 -120.84037 36102 ft 433 kts 329°
2026-05-05 17:27 35.55772 -120.88448 36096 ft 422 kts 328°
2026-05-05 17:27 35.60398 -120.92860 36090 ft 420 kts 329°
2026-05-05 17:28 35.65049 -120.97233 36077 ft 421 kts 330°
2026-05-05 17:28 35.69612 -121.01497 35959 ft 413 kts 330°
2026-05-05 17:28 35.71887 -121.03626 35539 ft 410 kts 331°
2026-05-05 17:29 35.74159 -121.05748 35008 ft 410 kts 332°
2026-05-05 17:29 35.76425 -121.07865 34564 ft 409 kts 333°
2026-05-05 17:29 35.78680 -121.09975 34219 ft 405 kts 333°
2026-05-05 17:29 35.80912 -121.12067 33873 ft 400 kts 334°
2026-05-05 17:30 35.83087 -121.14109 33472 ft 396 kts 334°
2026-05-05 17:30 35.85271 -121.16159 33074 ft 392 kts 333°
2026-05-05 17:30 35.87434 -121.18190 32689 ft 389 kts 333°
2026-05-05 17:30 35.89566 -121.20193 32313 ft 386 kts 334°
2026-05-05 17:31 35.91690 -121.22191 31919 ft 383 kts 334°
2026-05-05 17:31 35.93808 -121.24184 31501 ft 381 kts 334°
2026-05-05 17:31 35.95904 -121.26159 31121 ft 378 kts 333°
2026-05-05 17:31 35.97988 -121.28128 30788 ft 375 kts 333°
2026-05-05 17:32 36.00047 -121.30078 30461 ft 372 kts 333°
2026-05-05 17:32 36.02097 -121.32017 30130 ft 369 kts 333°
2026-05-05 17:32 36.04134 -121.33940 29667 ft 368 kts 333°
2026-05-05 17:32 36.06162 -121.35850 29269 ft 365 kts 333°
2026-05-05 17:33 36.07506 -121.37092 28998 ft 361 kts 335°
2026-05-05 17:33 36.09587 -121.38784 28542 ft 357 kts 337°
2026-05-05 17:33 36.11698 -121.40385 28102 ft 354 kts 338°
2026-05-05 17:33 36.13799 -121.41959 27665 ft 352 kts 338°
2026-05-05 17:34 36.15878 -121.43534 27273 ft 350 kts 337°
2026-05-05 17:34 36.17942 -121.45111 26928 ft 347 kts 337°
2026-05-05 17:34 36.19995 -121.46691 26582 ft 345 kts 337°
2026-05-05 17:34 36.22025 -121.48266 26212 ft 344 kts 336°
2026-05-05 17:35 36.24038 -121.49837 25866 ft 341 kts 336°
2026-05-05 17:35 36.26045 -121.51404 25512 ft 339 kts 336°
2026-05-05 17:35 36.28036 -121.52960 25113 ft 338 kts 335°
2026-05-05 17:35 36.30024 -121.54517 24716 ft 338 kts 335°
2026-05-05 17:36 36.32005 -121.56071 24425 ft 335 kts 335°
2026-05-05 17:36 36.33965 -121.57610 24151 ft 332 kts 335°
2026-05-05 17:36 36.35911 -121.59139 23839 ft 331 kts 335°
2026-05-05 17:36 36.37830 -121.60647 23472 ft 330 kts 335°
2026-05-05 17:37 36.39756 -121.62164 23121 ft 327 kts 335°
2026-05-05 17:37 36.41689 -121.63691 22765 ft 324 kts 334°
2026-05-05 17:37 36.43596 -121.65199 22357 ft 324 kts 334°
2026-05-05 17:37 36.45474 -121.66679 22018 ft 322 kts 334°
2026-05-05 17:38 36.47384 -121.68179 21678 ft 320 kts 334°
2026-05-05 17:38 36.49236 -121.69632 21357 ft 317 kts 334°
2026-05-05 17:38 36.51106 -121.71116 21030 ft 314 kts 334°
2026-05-05 17:38 36.52929 -121.72544 20673 ft 314 kts 334°
2026-05-05 17:39 36.54771 -121.73988 20367 ft 312 kts 334°
2026-05-05 17:39 36.56594 -121.75422 20152 ft 307 kts 334°
2026-05-05 17:39 36.58370 -121.76829 20102 ft 296 kts 334°
2026-05-05 17:39 36.60071 -121.78181 20092 ft 285 kts 334°
2026-05-05 17:40 36.61708 -121.79483 20083 ft 274 kts 334°
2026-05-05 17:40 36.63288 -121.80740 19914 ft 269 kts 334°
2026-05-05 17:40 36.64891 -121.82010 19410 ft 278 kts 334°
2026-05-05 17:40 36.66581 -121.83350 18755 ft 298 kts 333°
2026-05-05 17:41 36.68372 -121.84772 18031 ft 311 kts 332°
2026-05-05 17:41 36.70233 -121.86250 17256 ft 322 kts 332°
2026-05-05 17:41 36.72152 -121.87769 16516 ft 331 kts 332°
2026-05-05 17:41 36.74092 -121.89245 16374 ft 319 kts 338°
2026-05-05 17:42 36.76142 -121.90067 16280 ft 304 kts 351°
2026-05-05 17:42 36.78182 -121.90600 16200 ft 294 kts 352°
2026-05-05 17:42 36.80158 -121.91107 16038 ft 287 kts 352°
2026-05-05 17:42 36.82101 -121.91617 15743 ft 286 kts 352°
2026-05-05 17:43 36.84050 -121.92144 15406 ft 285 kts 351°
2026-05-05 17:43 36.85981 -121.92678 15161 ft 283 kts 351°
2026-05-05 17:43 36.87895 -121.93214 15128 ft 287 kts 351°
2026-05-05 17:43 36.89863 -121.93766 15098 ft 284 kts 351°
2026-05-05 17:44 36.91784 -121.94302 15093 ft 283 kts 351°
2026-05-05 17:44 36.93710 -121.94836 15089 ft 284 kts 351°
2026-05-05 17:44 36.95610 -121.95391 15073 ft 285 kts 349°
2026-05-05 17:44 36.97502 -121.96081 15075 ft 280 kts 347°
2026-05-05 17:45 36.99327 -121.96797 15058 ft 269 kts 347°
2026-05-05 17:45 37.01066 -121.97489 15057 ft 257 kts 347°
2026-05-05 17:45 37.02733 -121.98153 15060 ft 246 kts 347°
2026-05-05 17:45 37.04356 -121.98794 14890 ft 251 kts 347°
2026-05-05 17:46 37.06116 -121.99477 14399 ft 278 kts 347°
2026-05-05 17:46 37.07924 -122.00183 13950 ft 283 kts 347°
2026-05-05 17:46 37.09818 -122.00926 13447 ft 288 kts 347°
2026-05-05 17:46 37.11738 -122.01679 12921 ft 291 kts 347°
2026-05-05 17:47 37.13677 -122.02442 12391 ft 293 kts 347°
2026-05-05 17:47 37.15620 -122.03210 11769 ft 291 kts 347°
2026-05-05 17:47 37.17549 -122.03971 11164 ft 290 kts 347°
2026-05-05 17:47 37.19469 -122.04732 10554 ft 289 kts 347°
2026-05-05 17:48 37.21380 -122.05490 9960 ft 289 kts 347°
2026-05-05 17:48 37.23302 -122.06247 9310 ft 289 kts 347°
2026-05-05 17:48 37.25222 -122.06990 8655 ft 288 kts 346°
2026-05-05 17:48 37.27129 -122.07727 8192 ft 283 kts 346°
2026-05-05 17:49 37.28920 -122.08571 8064 ft 267 kts 341°
2026-05-05 17:49 37.30636 -122.09194 7998 ft 250 kts 351°
2026-05-05 17:49 37.32328 -122.09749 7997 ft 253 kts 346°
2026-05-05 17:49 37.34009 -122.10417 8004 ft 253 kts 346°
2026-05-05 17:50 37.35678 -122.11088 7948 ft 253 kts 346°
2026-05-05 17:50 37.37368 -122.11769 7422 ft 259 kts 345°
2026-05-05 17:50 37.39119 -122.12427 6784 ft 264 kts 347°
2026-05-05 17:50 37.40888 -122.13022 6104 ft 262 kts 347°
2026-05-05 17:51 37.42647 -122.13612 5378 ft 261 kts 346°
2026-05-05 17:51 37.44362 -122.14194 4686 ft 259 kts 345°
2026-05-05 17:51 37.46131 -122.14800 3934 ft 258 kts 344°
2026-05-05 17:51 37.47844 -122.15388 3443 ft 250 kts 344°
2026-05-05 17:52 37.49462 -122.15942 3254 ft 231 kts 344°
2026-05-05 17:52 37.50951 -122.16450 3129 ft 213 kts 344°
2026-05-05 17:52 37.52313 -122.16919 3106 ft 191 kts 342°
2026-05-05 17:52 37.53339 -122.17746 3103 ft 172 kts 305°
2026-05-05 17:53 37.53984 -122.19021 3024 ft 178 kts 306°
2026-05-05 17:53 37.54662 -122.20329 2829 ft 171 kts 302°
2026-05-05 17:53 37.55213 -122.21554 2601 ft 153 kts 300°
2026-05-05 17:53 37.55684 -122.22660 2395 ft 138 kts 300°
2026-05-05 17:54 37.56128 -122.23719 2209 ft 133 kts 300°
2026-05-05 17:54 37.56558 -122.24748 2050 ft 134 kts 300°
2026-05-05 17:54 37.56996 -122.25802 1867 ft 136 kts 300°
2026-05-05 17:54 37.57435 -122.26858 1680 ft 135 kts 300°
2026-05-05 17:55 37.57857 -122.27869 1488 ft 134 kts 300°
2026-05-05 17:55 37.58301 -122.28937 1316 ft 137 kts 300°
2026-05-05 17:55 37.58750 -122.30015 1106 ft 140 kts 299°
2026-05-05 17:55 37.59208 -122.31113 904 ft 142 kts 299°
2026-05-05 17:56 37.59659 -122.32193 700 ft 138 kts 299°
2026-05-05 17:56 37.60098 -122.33245 521 ft 137 kts 298°
2026-05-05 17:56 37.60538 -122.34314 390 ft 138 kts 302°
2026-05-05 17:56 37.60991 -122.35404 177 ft 143 kts 298°
2026-05-05 17:57 37.61428 -122.36444 30 ft 131 kts 299°
2026-05-05 17:57 37.61805 -122.37350 21 ft 95 kts 297°
2026-05-05 17:57 37.61962 -122.37730 21 ft 16 kts 299°
2026-05-05 17:57 37.61997 -122.37859 21 ft 16 kts 264°
2026-05-05 17:58 37.61966 -122.37935 21 ft 6 kts 227°
2026-05-05 17:58 37.61964 -122.37938 21 ft 0 kts 227°
2026-05-05 17:59 37.61954 -122.37952 21 ft 5 kts 227°
2026-05-05 17:59 37.61907 -122.37985 21 ft 5 kts 180°
2026-05-05 17:59 37.61875 -122.37998 23 ft 5 kts 218°
2026-05-05 18:00 37.61855 -122.38034 22 ft 5 kts 236°
2026-05-05 18:00 37.61846 -122.38051 22 ft 5 kts 236°
2026-05-05 18:00 37.61835 -122.38071 22 ft 1 kts 235°
2026-05-05 18:00 37.61829 -122.38082 22 ft 2 kts 234°
2026-05-05 18:01 37.61826 -122.38087 21 ft 0 kts 234°